Showing default

KUIPER-00317, 68600

Orbit data source: Space-Track

KUIPER-00317, 68600 is a payload satellite owned by Kuiper Systems (US) in LEO that was launched on Sat, 04 Apr 2026 UTC via an ATLAS V 551 launch vehicle from the Air Force Eastern Test Range (AFETR). Payload-class satellites include a variety of spacecraft equipped with specific instruments for various scientific and technological missions. These include communications satellites like Starlink; space stations such as the ISS; scientific satellites like the Hubble; Earth observation satellites from companies like Planet Labs, Umbra, and HawkEye 360; GPS; miniature CubeSats for education and research; and military/defense satellites.

Loading next visibility...
Identifier
68600, 2026-072AD
Orbit
LEO
Country
Flag of USUS
Related business
Manufacturer
Kuiper Systems
Mission
Operational spacecraft
Bus & Motor
KUIPER, Unknown motor
Mass
~490 kg wet, ~490 kg dry
Launch date (UTC)
2026-04-04 (2 months ago)
Launch vehicle
ATLAS V 551
Launch site
Air Force Eastern Test Range (AFETR)
Object type
Payload
Rocket body
Debris
Shape & HBR
Unknown shape, 3.4 m
Radar Cross Section
Large (>1 m²)

Expand to show TLE details & history
Last TLE update: 6 days ago

TLE from 6 days ago
0 KUIPER-00317
1 68600U 26072AD  26154.50586512  .00031014  00000-0  82368-3 0  9996
2 68600  51.8695 243.2050 0009912 331.8994  28.1456 15.37960191  9276
Epoch: 2026-06-03T12:08Z
TLE epoch observation values (Epoch: 2026-06-03T12:08:26.746Z)
Latitude
-0.00008°
Longitude
169.12999°
Altitude
446.937 km
Speed
7.649 km/s
True Right ascension
16h 12m 49s
True Declination
0° 00' 00"
Sunlit
Object was in full shadow at epoch
Visualization orbit readout
Latitude
Unknown
Longitude
Unknown
Altitude
Unknown
Speed
Unknown
Apparent Right ascension
Unknown
Apparent Declination
Unknown
Sunlit
N/A
Visualization observer readout
Local Sidereal Time
19:27:35
Azimuth
Unknown
Elevation
Unknown
Doppler factor
Unknown
Orbital elements
Apogee altitude
459.38 km
Perigee altitude
445.839 km
Semi-major axis
6,830.747 km
Eccentricity
0.00099
Inclination
51.8695°
RAAN
243.205°
Arg. of periapsis
331.8994°
True anomaly
28.19924°
Mean anomaly
28.1456°
Eccentric anomaly
28.17241°
Mean motion
3.84451 °/min
Orbital period
93.64 mins
BSTAR
0.00082368
Loading maneuver chart data...
Computing Atmospheric mass density...
Loading historical data...
Loading historical data...
Loading historical data...
Loading historical data...
Loading historical data...
Loading historical data...
Loading historical data...

Documentation

Showing up to 5 results
|